Concordia, KS

10:35 AM CDT on May 29, 2017 (GMT -0500)
Blosser Municipal

Weather History for KCNK - May, 2014

Change the Weather History Date:

Wednesday, May 7, 2014

  Actual Average Record
Temperature  
Mean Temperature 83 °F 60 °F  
Max Temperature 99 °F 71 °F 99 °F (2014)
Min Temperature 67 °F 49 °F 31 °F (1890)
Degree Days  
Heating Degree Days 0 6  
Month to date heating degree days 29 48  
Since 1 July heating degree days 5656 5312  
Cooling Degree Days 18 1  
Month to date cooling degree days 24 7  
Year to date cooling degree days 49 24  
Growing Degree Days 32 (Base 50)    
Moisture  
Dew Point 54 °F    
Average Humidity 45    
Maximum Humidity 81    
Minimum Humidity 8    
Precipitation  
Precipitation 0.04 in 0.12 in 1.86 in (1995)
Month to date precipitation 0.04 0.81  
Year to date precipitation 2.75 6.64  
Snow  
Snow 0.00 in 0.00 in T in (1967)
Month to date snowfall 0.0 0.0  
Year to date snowfall 16.9 13.7  
Since 1 July snowfall 23.2 20.2  
Snow Depth 0.00 in    
Sea Level Pressure  
Sea Level Pressure 29.49 in    
Wind  
Wind Speed 21 mph (South)    
Max Wind Speed 37 mph    
Max Gust Speed 47 mph    
Visibility 10 miles    
Events Rain , Thunderstorm    
T = Trace of Precipitation, MM = Missing Value Source: NWS Daily Summary

Daily Weather History Graph

Daily Weather History Graph

Search for Another Location

Airport or City:

Trip Planner

Search our weather history database for the weather conditions in past years. The results will help you decide how hot, cold, wet, or windy it might be!

Date:

Astronomy

May. 07, 2014 Rise Set
Actual Time 6:24 AM CDT 8:30 PM CDT
Civil Twilight 5:54 AM CDT 9:00 PM CDT
Nautical Twilight 5:18 AM CDT 9:36 PM CDT
Astronomical Twilight 4:39 AM CDT 10:16 PM CDT
Moon 1:38 PM CDT (5/7) 2:22 AM CDT (5/7)
Length of Visible Light 15h 05m
Length of Day
14h 05m
First Quarter, 55% of the Moon is Illuminated
May 7
First Quarter
May 14
Full
May 21
Last Quarter
May 28
New
Jun 5
First Quarter

Hourly Weather History & Observations

Time (CDT) Temp. Heat Index Dew Point Humidity Pressure Visibility Wind Dir Wind Speed Gust Speed Precip Events Conditions
12:55 AM 77.0 °F - 60.8 °F 57% 29.49 in 10.0 mi South 19.6 mph 28.8 mph N/A   Clear
1:55 AM 75.9 °F - 61.0 °F 60% 29.43 in 10.0 mi South 23.0 mph 32.2 mph N/A   Clear
2:55 AM 73.0 °F - 61.0 °F 66% 29.43 in 10.0 mi South 17.3 mph - N/A   Clear
3:55 AM 71.1 °F - 61.0 °F 70% 29.44 in 10.0 mi South 18.4 mph 27.6 mph N/A   Clear
4:55 AM 70.0 °F - 60.1 °F 71% 29.44 in 10.0 mi South 24.2 mph 29.9 mph N/A   Clear
5:55 AM 68.0 °F - 60.1 °F 76% 29.45 in 10.0 mi South 21.9 mph - N/A   Clear
6:55 AM 66.9 °F - 60.1 °F 79% 29.46 in 10.0 mi South 19.6 mph 27.6 mph N/A   Clear
7:55 AM 69.1 °F - 61.0 °F 75% 29.47 in 10.0 mi South 25.3 mph 32.2 mph N/A   Clear
8:55 AM 73.0 °F - 60.1 °F 64% 29.48 in 10.0 mi South 23.0 mph 34.5 mph N/A   Clear
9:55 AM 78.1 °F - 55.9 °F 46% 29.49 in 10.0 mi SSW 27.6 mph 34.5 mph N/A   Clear
10:55 AM 82.9 °F - 52.0 °F 34% 29.48 in 10.0 mi SSW 20.7 mph 29.9 mph N/A   Clear
11:55 AM 87.8 °F - 46.4 °F 24% 29.54 in 10.0 mi SSW 21.9 mph 28.8 mph N/A   Clear
12:55 PM 91.9 °F - 46.9 °F 21% 29.48 in 10.0 mi SSW 17.3 mph 27.6 mph N/A   Clear
1:55 PM 96.1 °F - 37.9 °F 13% 29.47 in 10.0 mi SW 23.0 mph 32.2 mph N/A   Clear
2:55 PM 97.0 °F - 28.9 °F 9% 29.46 in 10.0 mi SW 27.6 mph 38.0 mph N/A   Clear
3:55 PM 98.6 °F - 28.4 °F 8% 29.50 in 10.0 mi SW 19.6 mph 31.1 mph N/A   Clear
4:55 PM 97.0 °F - 28.9 °F 9% 29.44 in 10.0 mi SSW 24.2 mph 46.0 mph N/A   Clear
5:55 PM 93.9 °F - 45.0 °F 18% 29.44 in 10.0 mi South 19.6 mph 31.1 mph N/A   Clear
6:55 PM 90.0 °F - 46.0 °F 22% 29.45 in 10.0 mi South 18.4 mph 26.5 mph N/A   Clear
7:55 PM 84.9 °F 83.9 °F 57.0 °F 38% 29.48 in 10.0 mi South 27.6 mph 43.7 mph N/A   Partly Cloudy
8:55 PM 78.1 °F - 57.9 °F 50% 29.47 in 10.0 mi SSE 18.4 mph - N/A   Clear
9:35 PM 78.1 °F - 61.0 °F 56% 29.57 in 10.0 mi South 18.4 mph 24.2 mph N/A Thunderstorm Thunderstorm
9:55 PM 70.0 °F - 66.0 °F 87% 29.57 in 6.0 mi SW 20.7 mph 39.1 mph 0.02 in Rain , Thunderstorm Thunderstorms and Rain
10:19 PM 68.0 °F - 62.1 °F 81% 29.60 in 10.0 mi South 19.6 mph 32.2 mph 0.02 in Thunderstorm Partly Cloudy
10:40 PM 69.1 °F - 62.1 °F 78% 29.59 in 10.0 mi SSE 18.4 mph - 0.02 in   Clear
10:55 PM 69.1 °F - 62.1 °F 78% 29.55 in 10.0 mi SSE 19.6 mph - 0.02 in   Clear
11:55 PM 70.0 °F - 63.0 °F 78% 29.55 in 10.0 mi SSE 12.7 mph - N/A   Clear